Location: La Oliva
(42.2466°N, 2.9955°E)
Time: 10:17:54
(UTC+00:00)

USA 215 - Pass Details

Date: 22 April 2021
Orbit: 1101 x 1107 km, 123.0° (Epoch: 07 May)

Event Time Altitude Azimuth Distance (km) Brightness Sun altitude
Exits shadow 21:21:35 48° 99° (E) 1,408 3.5 -25.9°
Maximum altitude 21:23:26 69° 36° (NE) 1,175 3.3 -26.2°
Drops below altitude 10° 21:29:55 10° 315° (NW) 2,963 6.5 -26.9°
Sets 21:32:24 0° 313° (NW) 3,923 7.4 -27.2°
